Precipitable_Water
1.16 1.17 1.16 1.15 1.13 1.11 1.11 1.09 1.04 0.99 0.93 0.89 0.86 0.83 0.79 0.72 0.66 0.63 0.62 0.60 0.58 0.55 0.53 0.51 0.50 0.48 0.47 0.47 0.46 0.46 0.46 0.45 0.45 0.43 0.41 0.38 0.36 0.36 0.35 0.33 0.31 0.30 0.28 0.27 0.26 0.24 0.23 0.22 0.22 0.22 0.22 0.19 0.18 0.18 0.19 0.19 0.21 0.23 0.23 0.23 0.23 0.24 0.23 0.21 0.17 0.16 0.18 0.22 0.22 0.22 0.24 0.25 0.23 0.26 0.26 0.26 0.27 0.28 0.30 0.31 0.33 0.33 0.33 0.34 0.34
1.15 1.15 1.14 1.13 1.11 1.10 1.09 1.06 1.00 0.94 0.89 0.86 0.83 0.80 0.75 0.68 0.64 0.62 0.58 0.58 0.57 0.54 0.51 0.49 0.48 0.46 0.45 0.45 0.46 0.46 0.45 0.44 0.44 0.42 0.39 0.37 0.35 0.35 0.34 0.33 0.30 0.28 0.26 0.25 0.25 0.24 0.23 0.22 0.21 0.21 0.21 0.18 0.18 0.18 0.19 0.19 0.19 0.20 0.21 0.22 0.22 0.22 0.25 0.22 0.19 0.18 0.15 0.19 0.19 0.22 0.22 0.25 0.22 0.26 0.27 0.27 0.28 0.29 0.29 0.31 0.32 0.34 0.34 0.35 0.34
1.16 1.14 1.13 1.11 1.10 1.09 1.06 1.00 0.96 0.91 0.88 0.85 0.81 0.76 0.71 0.66 0.64 0.60 0.58 0.57 0.56 0.53 0.50 0.48 0.47 0.46 0.44 0.44 0.44 0.44 0.44 0.44 0.43 0.41 0.37 0.35 0.34 0.34 0.33 0.30 0.27 0.25 0.25 0.24 0.24 0.23 0.22 0.22 0.21 0.21 0.20 0.17 0.18 0.18 0.19 0.19 0.20 0.19 0.20 0.21 0.21 0.21 0.22 0.23 0.21 0.18 0.17 0.17 0.20 0.20 0.21 0.22 0.23 0.24 0.28 0.29 0.30 0.31 0.30 0.31 0.32 0.33 0.35 0.36 0.35
1.13 1.12 1.10 1.09 1.08 1.04 0.99 0.96 0.92 0.89 0.85 0.82 0.77 0.73 0.69 0.65 0.63 0.60 0.58 0.56 0.52 0.51 0.50 0.48 0.47 0.46 0.44 0.44 0.44 0.44 0.44 0.43 0.42 0.39 0.35 0.33 0.32 0.31 0.29 0.28 0.27 0.26 0.25 0.24 0.23 0.23 0.22 0.21 0.21 0.20 0.18 0.16 0.17 0.18 0.19 0.20 0.19 0.19 0.19 0.20 0.20 0.20 0.21 0.22 0.22 0.21 0.20 0.17 0.18 0.19 0.21 0.21 0.22 0.26 0.28 0.30 0.30 0.30 0.31 0.32 0.33 0.34 0.35 0.36 0.37
1.10 1.08 1.06 1.04 1.03 0.99 0.95 0.92 0.88 0.85 0.83 0.80 0.75 0.71 0.67 0.64 0.62 0.59 0.57 0.53 0.51 0.49 0.49 0.48 0.46 0.46 0.44 0.44 0.44 0.44 0.42 0.41 0.39 0.37 0.35 0.34 0.31 0.30 0.28 0.28 0.28 0.27 0.26 0.26 0.25 0.23 0.22 0.21 0.21 0.19 0.17 0.16 0.17 0.18 0.19 0.18 0.19 0.20 0.19 0.20 0.21 0.21 0.22 0.22 0.21 0.22 0.20 0.18 0.18 0.20 0.21 0.22 0.24 0.26 0.28 0.28 0.29 0.30 0.32 0.32 0.33 0.34 0.35 0.37 0.38
1.08 1.05 1.03 1.00 0.98 0.95 0.92 0.89 0.85 0.83 0.81 0.77 0.73 0.69 0.66 0.63 0.61 0.59 0.55 0.51 0.49 0.49 0.47 0.47 0.46 0.45 0.45 0.44 0.43 0.42 0.41 0.40 0.38 0.37 0.37 0.36 0.33 0.31 0.30 0.30 0.29 0.29 0.28 0.28 0.26 0.24 0.23 0.22 0.21 0.19 0.18 0.17 0.17 0.18 0.19 0.19 0.20 0.20 0.20 0.20 0.21 0.21 0.21 0.21 0.21 0.20 0.20 0.18 0.18 0.17 0.20 0.20 0.22 0.25 0.28 0.29 0.29 0.28 0.29 0.32 0.34 0.36 0.36 0.36 0.38
1.05 1.02 1.01 0.99 0.96 0.93 0.90 0.86 0.84 0.82 0.80 0.76 0.72 0.68 0.65 0.62 0.59 0.55 0.53 0.50 0.47 0.45 0.46 0.45 0.46 0.45 0.44 0.43 0.42 0.41 0.39 0.39 0.38 0.38 0.38 0.37 0.34 0.32 0.31 0.31 0.30 0.30 0.29 0.28 0.28 0.27 0.25 0.23 0.21 0.20 0.19 0.19 0.19 0.19 0.20 0.20 0.21 0.20 0.21 0.21 0.21 0.21 0.20 0.20 0.20 0.19 0.19 0.18 0.18 0.19 0.19 0.21 0.24 0.23 0.27 0.30 0.31 0.31 0.30 0.29 0.30 0.35 0.38 0.38 0.37
1.02 1.01 1.00 0.98 0.94 0.91 0.88 0.85 0.83 0.82 0.80 0.76 0.71 0.67 0.65 0.62 0.59 0.56 0.53 0.49 0.44 0.43 0.43 0.44 0.45 0.44 0.43 0.42 0.41 0.41 0.39 0.38 0.38 0.39 0.38 0.37 0.35 0.33 0.32 0.31 0.30 0.30 0.29 0.28 0.28 0.28 0.26 0.23 0.21 0.21 0.21 0.22 0.22 0.22 0.22 0.21 0.21 0.20 0.21 0.22 0.22 0.21 0.20 0.20 0.19 0.19 0.17 0.17 0.17 0.18 0.20 0.21 0.23 0.26 0.28 0.29 0.28 0.29 0.33 0.33 0.31 0.33 0.35 0.39 0.42
1.00 1.00 0.99 0.97 0.94 0.91 0.89 0.86 0.84 0.81 0.78 0.74 0.70 0.67 0.64 0.61 0.59 0.55 0.51 0.45 0.41 0.41 0.43 0.43 0.42 0.42 0.41 0.41 0.40 0.40 0.39 0.38 0.38 0.38 0.37 0.36 0.36 0.34 0.34 0.32 0.31 0.30 0.28 0.28 0.28 0.27 0.25 0.23 0.22 0.22 0.24 0.23 0.23 0.24 0.24 0.24 0.23 0.21 0.21 0.21 0.21 0.20 0.19 0.18 0.18 0.17 0.17 0.17 0.17 0.19 0.20 0.20 0.22 0.24 0.24 0.26 0.27 0.29 0.33 0.36 0.35 0.37 0.39 0.41 0.45
1.00 0.99 0.98 0.97 0.95 0.92 0.89 0.86 0.83 0.80 0.76 0.72 0.68 0.66 0.63 0.60 0.57 0.53 0.48 0.42 0.39 0.39 0.40 0.41 0.40 0.39 0.38 0.38 0.38 0.38 0.38 0.39 0.39 0.39 0.38 0.37 0.36 0.36 0.34 0.33 0.32 0.30 0.28 0.27 0.27 0.26 0.24 0.24 0.24 0.23 0.22 0.23 0.24 0.23 0.23 0.22 0.23 0.23 0.22 0.21 0.21 0.19 0.19 0.17 0.16 0.16 0.17 0.16 0.17 0.19 0.19 0.19 0.22 0.24 0.25 0.28 0.31 0.33 0.34 0.36 0.35 0.39 0.42 0.42 0.45
0.99 0.98 0.98 0.97 0.94 0.92 0.89 0.86 0.83 0.78 0.74 0.71 0.68 0.65 0.62 0.59 0.55 0.51 0.46 0.40 0.38 0.38 0.37 0.37 0.38 0.38 0.37 0.36 0.36 0.37 0.38 0.39 0.39 0.38 0.38 0.37 0.36 0.35 0.34 0.33 0.32 0.31 0.29 0.27 0.26 0.24 0.23 0.23 0.21 0.21 0.22 0.23 0.24 0.23 0.22 0.21 0.21 0.21 0.21 0.20 0.21 0.20 0.18 0.16 0.16 0.17 0.17 0.17 0.19 0.20 0.20 0.20 0.22 0.26 0.27 0.29 0.32 0.33 0.35 0.37 0.40 0.41 0.40 0.39 0.37
0.97 0.99 0.99 0.96 0.94 0.92 0.90 0.86 0.80 0.76 0.72 0.69 0.66 0.64 0.61 0.57 0.52 0.48 0.44 0.39 0.37 0.36 0.35 0.35 0.35 0.35 0.35 0.35 0.36 0.37 0.37 0.39 0.39 0.39 0.37 0.36 0.37 0.36 0.35 0.33 0.32 0.31 0.30 0.28 0.26 0.25 0.23 0.22 0.20 0.21 0.22 0.24 0.24 0.23 0.21 0.20 0.20 0.20 0.20 0.19 0.19 0.19 0.20 0.18 0.17 0.16 0.18 0.18 0.18 0.20 0.21 0.22 0.24 0.26 0.27 0.29 0.31 0.34 0.37 0.39 0.41 0.41 0.41 0.41 0.42
0.97 0.98 0.99 0.97 0.95 0.92 0.87 0.82 0.77 0.72 0.69 0.67 0.66 0.64 0.59 0.54 0.51 0.46 0.40 0.38 0.36 0.35 0.34 0.34 0.33 0.34 0.33 0.33 0.34 0.36 0.37 0.38 0.39 0.38 0.38 0.37 0.37 0.36 0.34 0.32 0.30 0.31 0.29 0.28 0.26 0.25 0.23 0.22 0.20 0.21 0.22 0.24 0.23 0.22 0.20 0.20 0.20 0.19 0.19 0.19 0.18 0.18 0.18 0.17 0.18 0.20 0.21 0.20 0.20 0.20 0.23 0.24 0.24 0.25 0.28 0.30 0.34 0.33 0.36 0.38 0.41 0.43 0.45 0.44 0.45
0.95 0.96 0.96 0.95 0.92 0.87 0.84 0.79 0.74 0.70 0.69 0.67 0.65 0.62 0.57 0.53 0.51 0.46 0.40 0.37 0.35 0.34 0.33 0.33 0.32 0.32 0.32 0.33 0.34 0.35 0.36 0.37 0.38 0.38 0.38 0.38 0.37 0.36 0.34 0.31 0.31 0.30 0.29 0.28 0.27 0.25 0.24 0.20 0.20 0.20 0.22 0.22 0.22 0.21 0.20 0.20 0.20 0.19 0.17 0.17 0.17 0.18 0.17 0.17 0.18 0.20 0.22 0.22 0.22 0.21 0.25 0.27 0.26 0.27 0.30 0.33 0.32 0.33 0.36 0.38 0.42 0.44 0.46 0.47 0.50
0.93 0.94 0.94 0.94 0.90 0.85 0.81 0.77 0.73 0.71 0.70 0.68 0.65 0.60 0.55 0.53 0.51 0.46 0.39 0.35 0.33 0.32 0.32 0.31 0.31 0.32 0.32 0.33 0.33 0.33 0.35 0.37 0.37 0.37 0.37 0.37 0.36 0.35 0.33 0.32 0.31 0.30 0.29 0.28 0.27 0.26 0.23 0.21 0.22 0.22 0.22 0.21 0.21 0.21 0.20 0.20 0.20 0.18 0.17 0.16 0.17 0.17 0.17 0.16 0.18 0.20 0.21 0.23 0.23 0.24 0.26 0.28 0.28 0.29 0.31 0.32 0.34 0.36 0.39 0.41 0.45 0.49 0.51 0.53 0.52
0.90 0.93 0.93 0.92 0.88 0.84 0.79 0.76 0.73 0.71 0.69 0.67 0.62 0.58 0.54 0.52 0.49 0.44 0.38 0.35 0.34 0.33 0.32 0.31 0.30 0.30 0.31 0.32 0.32 0.32 0.34 0.36 0.36 0.36 0.36 0.36 0.36 0.34 0.32 0.30 0.29 0.29 0.28 0.28 0.28 0.26 0.23 0.23 0.23 0.22 0.22 0.20 0.20 0.21 0.21 0.21 0.20 0.18 0.16 0.17 0.16 0.16 0.16 0.18 0.19 0.21 0.22 0.23 0.24 0.25 0.27 0.28 0.29 0.30 0.31 0.32 0.34 0.37 0.40 0.45 0.49 0.51 0.50 0.47 0.45
0.87 0.91 0.91 0.90 0.86 0.82 0.78 0.74 0.71 0.69 0.67 0.64 0.60 0.56 0.53 0.51 0.48 0.43 0.36 0.34 0.32 0.31 0.30 0.30 0.30 0.29 0.30 0.31 0.31 0.31 0.33 0.34 0.34 0.34 0.35 0.35 0.34 0.32 0.31 0.30 0.28 0.27 0.26 0.27 0.26 0.24 0.22 0.23 0.24 0.23 0.22 0.20 0.21 0.21 0.21 0.21 0.19 0.17 0.16 0.16 0.16 0.15 0.15 0.17 0.19 0.20 0.21 0.23 0.24 0.25 0.26 0.27 0.28 0.28 0.29 0.31 0.33 0.36 0.39 0.41 0.44 0.49 0.47 0.43 0.43
0.87 0.88 0.88 0.89 0.85 0.81 0.77 0.73 0.70 0.68 0.66 0.62 0.59 0.56 0.53 0.51 0.46 0.41 0.35 0.32 0.31 0.30 0.29 0.29 0.29 0.29 0.28 0.29 0.30 0.30 0.31 0.32 0.31 0.31 0.30 0.29 0.29 0.29 0.29 0.28 0.27 0.26 0.25 0.25 0.24 0.22 0.22 0.24 0.24 0.23 0.22 0.21 0.21 0.21 0.21 0.21 0.18 0.17 0.16 0.16 0.14 0.14 0.15 0.17 0.18 0.19 0.21 0.22 0.23 0.23 0.24 0.25 0.26 0.27 0.28 0.30 0.32 0.35 0.36 0.38 0.46 0.50 0.47 0.46 0.42
0.85 0.88 0.88 0.87 0.84 0.79 0.74 0.71 0.69 0.66 0.63 0.61 0.58 0.55 0.52 0.50 0.47 0.41 0.36 0.33 0.31 0.31 0.29 0.28 0.27 0.27 0.27 0.27 0.28 0.28 0.28 0.27 0.27 0.26 0.25 0.24 0.25 0.25 0.25 0.25 0.24 0.24 0.23 0.22 0.23 0.20 0.21 0.22 0.23 0.23 0.23 0.22 0.21 0.21 0.21 0.20 0.18 0.17 0.17 0.16 0.14 0.14 0.16 0.18 0.18 0.18 0.19 0.19 0.20 0.22 0.22 0.23 0.25 0.26 0.27 0.28 0.30 0.33 0.36 0.42 0.49 0.51 0.47 0.46 0.46
0.88 0.89 0.89 0.87 0.81 0.77 0.74 0.71 0.69 0.66 0.63 0.61 0.59 0.56 0.54 0.52 0.48 0.42 0.37 0.34 0.32 0.30 0.29 0.27 0.26 0.26 0.26 0.26 0.26 0.25 0.24 0.24 0.25 0.24 0.24 0.24 0.24 0.23 0.22 0.20 0.20 0.20 0.21 0.20 0.19 0.19 0.20 0.22 0.23 0.23 0.23 0.23 0.22 0.22 0.21 0.21 0.19 0.18 0.18 0.16 0.15 0.14 0.18 0.18 0.18 0.19 0.19 0.19 0.20 0.22 0.22 0.23 0.24 0.24 0.25 0.27 0.28 0.31 0.34 0.40 0.49 0.53 0.51 0.49 0.48
0.86 0.87 0.88 0.86 0.80 0.75 0.73 0.71 0.68 0.66 0.63 0.59 0.58 0.56 0.53 0.50 0.49 0.45 0.39 0.37 0.34 0.31 0.29 0.28 0.27 0.26 0.26 0.26 0.26 0.26 0.26 0.24 0.24 0.24 0.24 0.24 0.23 0.21 0.19 0.18 0.17 0.17 0.17 0.18 0.19 0.19 0.20 0.21 0.22 0.24 0.24 0.23 0.22 0.22 0.21 0.20 0.20 0.19 0.18 0.17 0.17 0.18 0.19 0.18 0.18 0.19 0.18 0.19 0.20 0.21 0.22 0.23 0.23 0.24 0.24 0.25 0.27 0.29 0.32 0.37 0.47 0.54 0.55 0.52 0.49
0.87 0.88 0.89 0.87 0.80 0.74 0.71 0.71 0.68 0.64 0.61 0.59 0.57 0.55 0.53 0.52 0.49 0.46 0.43 0.40 0.36 0.32 0.30 0.30 0.29 0.28 0.27 0.27 0.27 0.26 0.27 0.26 0.25 0.26 0.25 0.23 0.21 0.20 0.18 0.17 0.18 0.18 0.18 0.19 0.19 0.20 0.21 0.22 0.23 0.24 0.24 0.24 0.23 0.22 0.21 0.20 0.19 0.19 0.19 0.19 0.18 0.18 0.18 0.19 0.19 0.19 0.18 0.18 0.19 0.20 0.21 0.22 0.22 0.23 0.23 0.24 0.25 0.27 0.29 0.33 0.41 0.52 0.58 0.59 0.55
0.88 0.88 0.87 0.83 0.78 0.74 0.72 0.70 0.67 0.64 0.61 0.59 0.56 0.53 0.52 0.50 0.49 0.47 0.44 0.41 0.37 0.33 0.30 0.31 0.32 0.30 0.30 0.30 0.29 0.29 0.28 0.28 0.27 0.26 0.24 0.22 0.20 0.19 0.19 0.19 0.20 0.21 0.19 0.19 0.20 0.21 0.23 0.24 0.24 0.25 0.24 0.24 0.23 0.22 0.21 0.21 0.20 0.19 0.20 0.19 0.19 0.19 0.19 0.19 0.19 0.19 0.18 0.18 0.18 0.18 0.20 0.21 0.22 0.22 0.23 0.23 0.25 0.26 0.27 0.30 0.35 0.47 0.56 0.60 0.61
0.87 0.86 0.84 0.81 0.77 0.75 0.74 0.71 0.67 0.63 0.60 0.58 0.56 0.53 0.51 0.50 0.48 0.45 0.43 0.40 0.37 0.33 0.31 0.32 0.32 0.31 0.31 0.31 0.32 0.32 0.32 0.31 0.29 0.25 0.23 0.22 0.20 0.19 0.19 0.19 0.20 0.22 0.22 0.21 0.22 0.23 0.23 0.24 0.25 0.25 0.24 0.24 0.23 0.22 0.22 0.21 0.21 0.21 0.21 0.20 0.20 0.20 0.20 0.19 0.19 0.19 0.19 0.18 0.17 0.17 0.19 0.21 0.23 0.23 0.24 0.24 0.25 0.25 0.26 0.28 0.31 0.39 0.52 0.58 0.60
0.85 0.84 0.82 0.79 0.77 0.76 0.75 0.70 0.65 0.61 0.59 0.57 0.54 0.52 0.51 0.50 0.45 0.44 0.42 0.40 0.37 0.32 0.30 0.32 0.31 0.31 0.32 0.33 0.34 0.35 0.34 0.32 0.29 0.27 0.23 0.22 0.20 0.20 0.19 0.21 0.23 0.23 0.22 0.23 0.24 0.25 0.25 0.26 0.26 0.25 0.25 0.24 0.24 0.23 0.22 0.22 0.22 0.22 0.22 0.22 0.22 0.21 0.20 0.20 0.20 0.19 0.18 0.18 0.18 0.18 0.19 0.21 0.23 0.25 0.26 0.26 0.25 0.25 0.25 0.26 0.29 0.33 0.45 0.57 0.59
0.82 0.81 0.80 0.79 0.77 0.76 0.71 0.66 0.62 0.59 0.58 0.57 0.54 0.52 0.48 0.45 0.42 0.40 0.39 0.37 0.34 0.31 0.29 0.31 0.32 0.33 0.33 0.35 0.36 0.36 0.34 0.31 0.29 0.28 0.25 0.22 0.21 0.20 0.20 0.22 0.23 0.23 0.24 0.24 0.25 0.26 0.27 0.27 0.26 0.26 0.25 0.24 0.24 0.23 0.22 0.22 0.23 0.23 0.23 0.23 0.23 0.23 0.22 0.21 0.20 0.20 0.19 0.19 0.19 0.18 0.19 0.21 0.23 0.24 0.26 0.26 0.24 0.23 0.24 0.25 0.26 0.28 0.34 0.45 0.53
0.79 0.78 0.77 0.77 0.76 0.73 0.67 0.62 0.60 0.59 0.57 0.57 0.55 0.52 0.49 0.46 0.42 0.38 0.35 0.33 0.31 0.29 0.30 0.31 0.32 0.34 0.34 0.37 0.37 0.37 0.34 0.31 0.29 0.27 0.26 0.23 0.21 0.20 0.22 0.22 0.24 0.24 0.24 0.25 0.25 0.26 0.27 0.27 0.26 0.26 0.25 0.25 0.24 0.24 0.24 0.23 0.23 0.23 0.24 0.24 0.24 0.24 0.24 0.23 0.21 0.21 0.21 0.20 0.20 0.20 0.20 0.21 0.24 0.24 0.23 0.24 0.24 0.24 0.24 0.25 0.25 0.26 0.29 0.36 0.44
0.77 0.76 0.75 0.75 0.73 0.71 0.66 0.61 0.58 0.56 0.56 0.56 0.53 0.51 0.50 0.46 0.40 0.35 0.33 0.30 0.28 0.29 0.32 0.33 0.34 0.35 0.37 0.38 0.37 0.35 0.33 0.30 0.28 0.27 0.26 0.24 0.20 0.19 0.21 0.23 0.22 0.23 0.23 0.24 0.25 0.26 0.26 0.26 0.27 0.26 0.25 0.24 0.24 0.23 0.23 0.23 0.23 0.23 0.24 0.24 0.25 0.25 0.25 0.25 0.24 0.23 0.23 0.23 0.22 0.22 0.21 0.21 0.21 0.22 0.23 0.23 0.24 0.24 0.25 0.24 0.25 0.24 0.26 0.29 0.33
0.77 0.75 0.74 0.73 0.71 0.70 0.65 0.61 0.58 0.56 0.55 0.54 0.53 0.49 0.43 0.41 0.38 0.37 0.36 0.35 0.33 0.32 0.34 0.36 0.37 0.39 0.40 0.38 0.35 0.32 0.31 0.29 0.28 0.31 0.29 0.25 0.21 0.18 0.19 0.21 0.22 0.23 0.24 0.25 0.26 0.26 0.25 0.25 0.24 0.24 0.23 0.22 0.22 0.22 0.22 0.22 0.22 0.23 0.23 0.24 0.24 0.25 0.25 0.25 0.23 0.22 0.23 0.23 0.22 0.22 0.21 0.21 0.20 0.21 0.22 0.22 0.23 0.24 0.25 0.24 0.25 0.25 0.25 0.26 0.28
0.75 0.73 0.73 0.72 0.70 0.69 0.65 0.61 0.59 0.57 0.55 0.52 0.51 0.49 0.50 0.46 0.42 0.38 0.37 0.40 0.39 0.38 0.39 0.38 0.39 0.42 0.41 0.39 0.38 0.33 0.30 0.31 0.33 0.32 0.29 0.26 0.22 0.19 0.19 0.20 0.22 0.23 0.25 0.26 0.26 0.24 0.23 0.23 0.23 0.23 0.22 0.22 0.21 0.21 0.21 0.21 0.21 0.21 0.21 0.22 0.24 0.24 0.24 0.25 0.24 0.24 0.23 0.23 0.23 0.23 0.23 0.22 0.21 0.21 0.21 0.21 0.22 0.24 0.24 0.25 0.24 0.25 0.24 0.23 0.24
0.73 0.72 0.71 0.70 0.70 0.69 0.65 0.61 0.59 0.58 0.56 0.53 0.49 0.46 0.42 0.44 0.47 0.47 0.45 0.44 0.41 0.41 0.42 0.43 0.45 0.46 0.42 0.38 0.38 0.38 0.36 0.35 0.34 0.32 0.31 0.28 0.24 0.21 0.19 0.19 0.20 0.22 0.24 0.24 0.24 0.23 0.23 0.22 0.23 0.23 0.23 0.23 0.22 0.21 0.22 0.21 0.21 0.21 0.21 0.21 0.22 0.23 0.24 0.24 0.25 0.25 0.24 0.23 0.23 0.24 0.24 0.23 0.22 0.22 0.21 0.21 0.21 0.23 0.23 0.24 0.25 0.25 0.24 0.23 0.22
0.72 0.72 0.71 0.70 0.69 0.67 0.64 0.61 0.58 0.57 0.54 0.51 0.46 0.43 0.41 0.40 0.42 0.45 0.46 0.44 0.43 0.44 0.44 0.45 0.47 0.46 0.43 0.40 0.38 0.37 0.37 0.36 0.34 0.32 0.30 0.28 0.25 0.23 0.21 0.20 0.20 0.21 0.22 0.24 0.22 0.23 0.24 0.24 0.23 0.23 0.24 0.23 0.22 0.23 0.22 0.22 0.22 0.22 0.22 0.20 0.20 0.21 0.23 0.23 0.25 0.25 0.24 0.24 0.23 0.23 0.24 0.24 0.23 0.23 0.22 0.22 0.21 0.22 0.23 0.23 0.23 0.24 0.24 0.23 0.23
0.72 0.71 0.70 0.68 0.67 0.65 0.62 0.60 0.58 0.55 0.52 0.49 0.46 0.45 0.41 0.39 0.37 0.38 0.41 0.43 0.43 0.44 0.45 0.48 0.49 0.46 0.43 0.41 0.39 0.36 0.34 0.34 0.32 0.30 0.29 0.27 0.25 0.23 0.22 0.21 0.21 0.21 0.22 0.21 0.21 0.22 0.23 0.24 0.24 0.24 0.24 0.23 0.23 0.23 0.23 0.23 0.23 0.23 0.23 0.21 0.20 0.19 0.21 0.23 0.25 0.25 0.25 0.24 0.24 0.24 0.24 0.24 0.24 0.24 0.23 0.23 0.22 0.21 0.23 0.23 0.23 0.24 0.25 0.24 0.23
0.73 0.71 0.69 0.66 0.64 0.62 0.61 0.59 0.57 0.55 0.51 0.47 0.44 0.42 0.41 0.39 0.36 0.36 0.34 0.35 0.39 0.43 0.48 0.49 0.46 0.43 0.41 0.40 0.37 0.36 0.35 0.33 0.31 0.28 0.27 0.26 0.24 0.22 0.22 0.21 0.22 0.23 0.22 0.20 0.20 0.21 0.23 0.24 0.24 0.24 0.24 0.25 0.24 0.24 0.23 0.23 0.24 0.24 0.24 0.22 0.21 0.21 0.20 0.21 0.22 0.23 0.24 0.24 0.24 0.24 0.24 0.24 0.25 0.24 0.23 0.23 0.23 0.22 0.21 0.23 0.23 0.22 0.23 0.25 0.24
0.71 0.70 0.69 0.66 0.63 0.62 0.61 0.59 0.56 0.54 0.51 0.47 0.43 0.42 0.39 0.38 0.38 0.36 0.35 0.36 0.38 0.40 0.41 0.40 0.40 0.40 0.38 0.38 0.37 0.36 0.35 0.33 0.31 0.28 0.25 0.24 0.22 0.22 0.22 0.20 0.18 0.19 0.21 0.22 0.22 0.22 0.23 0.23 0.23 0.24 0.25 0.25 0.25 0.25 0.24 0.24 0.24 0.24 0.23 0.22 0.21 0.20 0.20 0.20 0.20 0.21 0.22 0.23 0.23 0.23 0.24 0.24 0.24 0.25 0.25 0.23 0.23 0.22 0.21 0.22 0.23 0.23 0.23 0.24 0.25
0.70 0.70 0.70 0.68 0.64 0.62 0.61 0.59 0.57 0.53 0.50 0.47 0.44 0.41 0.39 0.38 0.37 0.37 0.38 0.41 0.41 0.40 0.39 0.38 0.38 0.39 0.39 0.38 0.37 0.36 0.35 0.33 0.29 0.25 0.23 0.22 0.22 0.22 0.19 0.17 0.18 0.19 0.20 0.21 0.22 0.23 0.24 0.24 0.24 0.24 0.25 0.25 0.26 0.26 0.25 0.25 0.24 0.24 0.24 0.23 0.21 0.20 0.20 0.20 0.20 0.20 0.20 0.22 0.23 0.23 0.23 0.24 0.24 0.24 0.25 0.25 0.24 0.24 0.23 0.22 0.22 0.23 0.23 0.24 0.26
0.70 0.70 0.70 0.69 0.67 0.64 0.62 0.61 0.58 0.55 0.53 0.51 0.46 0.43 0.42 0.40 0.39 0.39 0.41 0.41 0.41 0.41 0.41 0.40 0.39 0.39 0.39 0.38 0.37 0.36 0.35 0.31 0.26 0.24 0.23 0.23 0.24 0.23 0.21 0.22 0.22 0.21 0.21 0.22 0.23 0.24 0.24 0.24 0.25 0.25 0.25 0.25 0.26 0.26 0.26 0.26 0.26 0.25 0.25 0.24 0.22 0.22 0.23 0.24 0.24 0.23 0.22 0.21 0.22 0.23 0.23 0.23 0.24 0.24 0.24 0.24 0.24 0.25 0.25 0.24 0.22 0.23 0.23 0.23 0.24
0.71 0.71 0.71 0.71 0.69 0.67 0.64 0.62 0.59 0.57 0.54 0.51 0.48 0.45 0.42 0.39 0.39 0.40 0.41 0.42 0.43 0.43 0.40 0.39 0.38 0.35 0.32 0.31 0.34 0.32 0.30 0.27 0.25 0.25 0.27 0.26 0.25 0.24 0.25 0.26 0.26 0.24 0.24 0.24 0.25 0.25 0.25 0.25 0.25 0.25 0.25 0.26 0.26 0.26 0.27 0.27 0.27 0.26 0.25 0.25 0.25 0.25 0.26 0.27 0.27 0.27 0.26 0.25 0.24 0.24 0.24 0.23 0.23 0.24 0.24 0.23 0.24 0.24 0.25 0.25 0.24 0.22 0.22 0.23 0.23
0.72 0.73 0.72 0.71 0.70 0.69 0.67 0.63 0.60 0.57 0.54 0.50 0.48 0.44 0.40 0.38 0.40 0.43 0.43 0.44 0.45 0.42 0.39 0.38 0.35 0.31 0.28 0.26 0.26 0.26 0.24 0.22 0.22 0.24 0.26 0.27 0.27 0.27 0.27 0.27 0.27 0.27 0.26 0.26 0.26 0.26 0.26 0.26 0.26 0.26 0.26 0.26 0.26 0.27 0.28 0.28 0.28 0.27 0.26 0.26 0.26 0.27 0.27 0.27 0.28 0.28 0.28 0.28 0.27 0.27 0.26 0.25 0.25 0.24 0.24 0.23 0.23 0.24 0.25 0.25 0.25 0.24 0.22 0.22 0.23
0.73 0.73 0.71 0.70 0.68 0.69 0.68 0.64 0.61 0.57 0.53 0.50 0.47 0.42 0.39 0.41 0.44 0.45 0.45 0.46 0.44 0.41 0.39 0.36 0.32 0.31 0.31 0.29 0.25 0.25 0.23 0.23 0.25 0.26 0.27 0.27 0.27 0.27 0.28 0.28 0.28 0.28 0.28 0.28 0.28 0.28 0.27 0.27 0.27 0.26 0.25 0.25 0.26 0.27 0.28 0.28 0.27 0.27 0.27 0.27 0.27 0.27 0.28 0.28 0.29 0.29 0.29 0.30 0.29 0.29 0.29 0.28 0.28 0.27 0.26 0.24 0.23 0.24 0.24 0.25 0.26 0.26 0.25 0.23 0.24
0.74 0.73 0.71 0.69 0.68 0.68 0.68 0.65 0.60 0.57 0.53 0.49 0.46 0.42 0.39 0.43 0.46 0.47 0.48 0.47 0.45 0.42 0.38 0.34 0.33 0.34 0.36 0.34 0.32 0.31 0.29 0.28 0.28 0.28 0.27 0.27 0.28 0.28 0.28 0.29 0.29 0.29 0.29 0.29 0.29 0.29 0.29 0.28 0.28 0.27 0.26 0.25 0.26 0.26 0.27 0.27 0.27 0.27 0.28 0.28 0.28 0.28 0.28 0.29 0.30 0.30 0.31 0.32 0.32 0.31 0.32 0.32 0.32 0.31 0.29 0.27 0.26 0.24 0.24 0.25 0.26 0.27 0.27 0.26 0.24
0.76 0.74 0.72 0.70 0.68 0.68 0.66 0.62 0.60 0.58 0.55 0.51 0.47 0.44 0.44 0.47 0.49 0.50 0.49 0.47 0.44 0.41 0.37 0.36 0.36 0.37 0.37 0.37 0.35 0.34 0.31 0.30 0.29 0.29 0.29 0.29 0.29 0.29 0.30 0.30 0.30 0.30 0.30 0.30 0.31 0.30 0.30 0.29 0.29 0.28 0.27 0.26 0.25 0.25 0.26 0.27 0.28 0.28 0.28 0.29 0.29 0.29 0.29 0.29 0.30 0.31 0.31 0.32 0.33 0.34 0.34 0.34 0.35 0.35 0.34 0.33 0.30 0.27 0.24 0.23 0.24 0.26 0.27 0.27 0.26
0.74 0.73 0.71 0.68 0.67 0.68 0.66 0.62 0.61 0.59 0.56 0.52 0.48 0.47 0.49 0.51 0.51 0.50 0.47 0.46 0.43 0.40 0.39 0.38 0.38 0.38 0.38 0.38 0.37 0.35 0.33 0.31 0.30 0.30 0.30 0.30 0.30 0.31 0.31 0.31 0.31 0.32 0.32 0.32 0.32 0.32 0.31 0.30 0.30 0.29 0.29 0.28 0.28 0.27 0.27 0.28 0.29 0.29 0.29 0.29 0.30 0.30 0.30 0.31 0.31 0.32 0.32 0.33 0.34 0.35 0.36 0.36 0.36 0.36 0.36 0.36 0.35 0.32 0.28 0.25 0.23 0.24 0.26 0.27 0.27
0.73 0.72 0.69 0.67 0.67 0.68 0.67 0.66 0.64 0.61 0.58 0.53 0.51 0.51 0.52 0.53 0.51 0.47 0.46 0.44 0.42 0.41 0.40 0.39 0.39 0.38 0.37 0.37 0.36 0.35 0.33 0.32 0.31 0.31 0.31 0.31 0.31 0.31 0.31 0.31 0.32 0.32 0.32 0.32 0.32 0.32 0.32 0.31 0.30 0.30 0.31 0.30 0.30 0.30 0.30 0.30 0.31 0.30 0.30 0.30 0.30 0.31 0.31 0.31 0.32 0.32 0.33 0.33 0.34 0.36 0.36 0.36 0.37 0.37 0.37 0.38 0.37 0.35 0.34 0.30 0.26 0.24 0.24 0.25 0.27
0.72 0.69 0.67 0.66 0.66 0.67 0.68 0.67 0.66 0.63 0.59 0.55 0.52 0.52 0.52 0.51 0.49 0.47 0.46 0.45 0.43 0.42 0.41 0.39 0.39 0.38 0.37 0.36 0.36 0.34 0.33 0.33 0.32 0.32 0.31 0.31 0.31 0.31 0.31 0.32 0.32 0.32 0.32 0.32 0.32 0.32 0.32 0.31 0.31 0.31 0.30 0.31 0.32 0.32 0.32 0.32 0.32 0.32 0.32 0.32 0.31 0.31 0.32 0.32 0.33 0.34 0.34 0.35 0.35 0.36 0.36 0.37 0.37 0.37 0.37 0.38 0.38 0.37 0.36 0.35 0.32 0.28 0.25 0.24 0.25
0.70 0.68 0.67 0.66 0.66 0.66 0.67 0.66 0.66 0.63 0.58 0.55 0.53 0.51 0.50 0.49 0.48 0.48 0.48 0.47 0.46 0.45 0.43 0.41 0.40 0.39 0.38 0.37 0.36 0.34 0.33 0.33 0.32 0.32 0.32 0.32 0.31 0.31 0.32 0.32 0.32 0.33 0.33 0.33 0.33 0.33 0.32 0.32 0.32 0.31 0.31 0.31 0.32 0.32 0.33 0.33 0.34 0.34 0.34 0.33 0.33 0.33 0.34 0.34 0.35 0.35 0.35 0.36 0.36 0.37 0.37 0.37 0.38 0.38 0.38 0.37 0.38 0.38 0.37 0.37 0.36 0.34 0.29 0.26 0.25
0.69 0.68 0.67 0.66 0.66 0.66 0.66 0.66 0.65 0.61 0.58 0.55 0.54 0.52 0.49 0.46 0.47 0.50 0.50 0.50 0.48 0.47 0.44 0.41 0.40 0.39 0.38 0.37 0.35 0.33 0.33 0.32 0.31 0.31 0.31 0.31 0.31 0.32 0.32 0.32 0.32 0.32 0.32 0.33 0.33 0.33 0.32 0.32 0.32 0.32 0.32 0.32 0.32 0.32 0.33 0.34 0.34 0.34 0.35 0.35 0.35 0.35 0.35 0.35 0.36 0.36 0.37 0.38 0.39 0.39 0.39 0.38 0.38 0.38 0.38 0.38 0.37 0.38 0.38 0.38 0.37 0.36 0.35 0.31 0.27
0.68 0.67 0.67 0.67 0.66 0.65 0.66 0.66 0.64 0.60 0.56 0.54 0.52 0.50 0.47 0.47 0.49 0.51 0.52 0.52 0.51 0.48 0.44 0.42 0.40 0.40 0.38 0.36 0.34 0.33 0.32 0.31 0.30 0.30 0.30 0.31 0.31 0.31 0.31 0.31 0.31 0.32 0.32 0.33 0.33 0.33 0.32 0.32 0.31 0.31 0.31 0.31 0.31 0.32 0.32 0.33 0.34 0.34 0.35 0.35 0.35 0.36 0.36 0.37 0.37 0.38 0.39 0.40 0.41 0.41 0.41 0.40 0.40 0.40 0.40 0.39 0.38 0.38 0.37 0.37 0.37 0.38 0.37 0.36 0.33
0.68 0.68 0.67 0.66 0.66 0.66 0.67 0.66 0.61 0.56 0.53 0.52 0.51 0.49 0.48 0.48 0.50 0.52 0.53 0.52 0.51 0.48 0.44 0.40 0.39 0.38 0.37 0.36 0.34 0.32 0.31 0.30 0.29 0.29 0.29 0.30 0.30 0.30 0.30 0.31 0.32 0.32 0.33 0.33 0.33 0.33 0.32 0.33 0.33 0.32 0.32 0.32 0.32 0.32 0.32 0.32 0.33 0.33 0.34 0.35 0.35 0.36 0.37 0.38 0.39 0.39 0.40 0.42 0.43 0.43 0.43 0.43 0.42 0.42 0.42 0.41 0.40 0.39 0.38 0.37 0.37 0.37 0.38 0.38 0.36
0.68 0.68 0.66 0.66 0.66 0.67 0.67 0.63 0.56 0.53 0.55 0.54 0.53 0.51 0.50 0.52 0.53 0.53 0.53 0.52 0.50 0.46 0.42 0.40 0.37 0.36 0.35 0.33 0.32 0.31 0.31 0.30 0.29 0.29 0.29 0.29 0.30 0.30 0.31 0.31 0.32 0.32 0.33 0.33 0.33 0.33 0.33 0.34 0.34 0.34 0.34 0.34 0.34 0.34 0.33 0.33 0.33 0.33 0.33 0.34 0.35 0.36 0.38 0.39 0.41 0.42 0.43 0.43 0.44 0.44 0.44 0.44 0.44 0.44 0.44 0.43 0.42 0.41 0.39 0.38 0.38 0.37 0.37 0.37 0.37
0.68 0.68 0.67 0.65 0.65 0.65 0.61 0.56 0.53 0.55 0.56 0.57 0.56 0.53 0.52 0.52 0.53 0.53 0.53 0.50 0.47 0.44 0.41 0.39 0.37 0.36 0.34 0.33 0.32 0.31 0.30 0.29 0.29 0.29 0.29 0.29 0.30 0.30 0.31 0.31 0.31 0.32 0.32 0.33 0.33 0.33 0.33 0.33 0.33 0.33 0.33 0.33 0.34 0.34 0.34 0.34 0.34 0.34 0.34 0.34 0.35 0.36 0.38 0.39 0.40 0.42 0.44 0.45 0.46 0.47 0.46 0.46 0.45 0.45 0.45 0.45 0.44 0.42 0.41 0.39 0.38 0.38 0.38 0.38 0.38
Wind_Speed
14 14 13 12 12 12 11 11 10 10 9 9 10 10 9 9 9 9 9 9 9 10 10 10 10 11 11 12 13 13 13 13 13 13 13 13 13 14 14 15 16 16 17 18 18 19 20 21 22 23 24 25 25 26 27 28 29 30 31 31 32 32 33 34 35 36 37 37 38 38 39 39 39 38 38 38 38 39 39 39 39 39 39 39 39
15 14 13 13 12 12 11 11 11 10 10 10 10 10 10 10 10 9 9 9 9 10 10 10 10 11 12 12 13 13 13 13 13 13 13 13 13 14 14 15 16 16 17 18 18 19 20 21 22 23 24 25 26 26 28 29 30 30 31 32 32 33 34 34 35 36 37 38 38 38 38 38 38 38 38 38 38 38 38 39 39 39 39 39 39
15 14 13 13 12 12 12 12 11 11 11 11 10 10 10 10 10 10 10 10 10 10 10 11 11 11 12 13 13 13 13 13 13 13 13 13 13 14 14 15 16 16 17 17 18 19 20 21 22 24 24 25 26 27 28 30 30 31 31 32 33 33 34 34 35 36 36 37 37 38 38 38 38 38 38 38 38 38 38 38 38 38 39 39 39
15 14 14 13 13 13 12 12 12 12 11 11 11 10 11 10 10 10 10 11 11 11 11 11 11 12 12 13 13 13 13 13 13 13 13 13 13 14 14 15 15 16 16 17 18 19 20 22 22 24 24 25 26 28 29 30 31 31 32 32 33 33 34 34 35 35 35 36 37 38 38 39 39 39 39 39 39 39 38 38 38 38 38 38 38
15 15 14 14 13 13 13 13 12 12 12 12 11 11 11 11 11 11 11 11 12 11 11 11 12 12 12 13 13 13 13 13 13 13 13 13 13 14 14 15 15 16 16 17 18 19 20 21 22 24 24 25 27 28 30 31 31 32 32 32 33 33 34 34 34 34 35 37 38 38 39 39 39 39 39 40 39 39 38 38 37 37 36 36 36
16 15 15 14 14 13 13 13 13 13 13 12 12 12 12 12 12 12 12 12 12 12 12 12 12 12 13 13 13 13 13 12 12 12 13 13 14 14 14 15 15 16 16 17 18 19 20 21 22 23 24 26 27 29 30 31 31 32 32 32 33 33 33 33 33 34 36 37 38 39 40 40 40 40 40 40 40 39 38 37 36 35 34 34 34
17 16 15 15 14 14 14 14 14 13 14 13 13 13 13 13 13 12 12 13 13 13 13 12 12 12 13 13 13 12 12 12 12 13 13 14 14 14 14 15 15 16 17 17 18 20 20 22 23 23 24 26 27 29 30 31 31 31 32 32 32 32 32 33 34 35 36 37 38 39 40 40 40 40 40 39 38 38 37 36 34 33 32 33 34
18 17 17 16 16 15 15 15 14 14 14 14 14 14 14 14 14 13 13 13 13 13 13 13 12 12 12 13 12 12 12 12 13 13 14 14 14 14 14 15 15 16 17 18 19 20 21 22 23 23 25 26 27 29 30 31 31 31 31 32 32 32 32 33 34 36 37 38 38 39 40 40 40 40 40 38 37 35 35 34 33 33 33 33 34
19 18 18 18 17 16 16 15 15 15 15 15 15 15 15 15 14 14 14 14 14 13 13 13 12 12 12 13 12 12 12 13 13 13 14 14 14 14 15 15 15 16 17 18 19 20 21 22 23 24 25 26 28 29 30 31 31 31 31 31 31 31 32 34 35 36 37 38 38 39 39 40 41 41 39 37 36 35 34 34 33 34 34 34 35
20 20 19 19 18 17 16 16 16 16 16 16 16 16 16 15 15 14 14 14 14 14 13 13 13 12 13 13 13 13 13 13 13 13 13 14 14 14 15 15 15 16 17 18 19 20 21 22 23 24 26 27 28 29 30 30 30 30 30 30 31 31 33 34 35 36 37 38 39 39 39 40 41 41 39 37 35 35 34 34 34 34 35 36 36
21 21 20 19 19 18 18 17 17 18 18 17 17 17 16 16 15 15 15 14 14 14 13 13 13 13 13 13 13 13 13 13 14 13 13 13 14 14 15 15 15 16 17 17 18 20 21 22 23 24 26 27 28 29 29 29 30 30 30 30 30 31 33 34 36 37 38 38 39 39 39 40 42 42 39 36 35 34 34 34 34 35 36 37 38
22 21 21 20 20 19 19 19 19 19 19 18 18 17 17 17 16 15 15 15 14 14 13 13 13 13 13 13 13 13 14 14 13 13 13 13 14 15 15 15 15 15 16 17 18 19 21 22 23 24 25 26 27 27 28 28 28 29 29 29 30 32 33 35 36 37 38 39 39 40 40 41 42 42 39 36 34 34 34 34 35 36 38 39 40
22 22 21 21 21 20 20 20 20 20 19 19 19 18 18 17 17 16 16 15 15 14 13 13 13 13 13 13 13 13 14 14 13 13 13 13 14 15 15 15 15 15 16 17 18 19 21 22 22 23 25 26 26 26 26 27 27 27 28 28 30 32 33 35 36 37 38 38 39 40 40 41 43 43 40 36 34 34 35 35 37 38 39 40 41
22 22 22 22 21 21 20 20 20 20 20 19 19 18 18 17 17 17 16 16 15 14 14 14 13 13 13 13 13 14 14 14 13 13 13 14 14 15 15 15 15 16 16 17 18 19 20 21 22 23 24 24 25 25 25 26 26 26 27 28 29 31 33 34 36 36 37 38 38 39 40 41 42 43 40 37 34 35 35 37 38 40 41 42 41
23 22 22 22 21 21 20 20 20 20 20 20 19 19 18 18 17 17 17 16 15 15 14 14 14 14 13 13 13 14 14 13 13 13 13 14 14 14 14 15 15 16 16 17 18 19 20 21 21 22 23 23 24 24 25 25 25 26 27 28 29 31 32 34 35 36 37 38 38 39 40 41 42 43 41 38 35 35 37 38 39 41 42 42 41
22 22 22 22 21 21 20 20 20 20 20 20 19 19 19 18 18 17 16 16 15 15 15 15 14 14 14 13 13 13 14 13 13 13 13 13 14 14 14 15 15 16 16 17 17 19 20 20 21 21 22 22 23 24 24 24 24 25 27 28 29 31 32 34 35 37 37 38 39 39 40 41 42 43 42 40 37 37 38 38 39 41 42 42 40
21 21 22 22 21 21 20 20 20 21 21 20 20 20 19 19 18 17 16 16 15 15 15 15 14 14 14 14 13 13 13 13 13 13 13 13 14 14 15 15 15 15 16 16 17 18 19 19 20 21 21 22 23 23 24 23 24 25 26 28 29 30 32 33 35 36 37 38 39 40 41 42 42 43 43 41 40 39 39 39 41 42 43 42 40
21 22 22 22 22 22 21 21 21 21 21 21 20 20 19 19 18 17 17 16 16 15 15 15 14 14 14 14 13 13 14 14 13 13 13 13 14 14 15 15 15 15 15 16 17 18 18 19 19 20 20 21 22 22 23 23 23 25 26 27 29 31 32 33 34 36 37 38 39 40 41 42 42 42 42 42 42 41 40 40 42 43 43 43 41
22 23 23 22 22 22 22 22 22 21 21 21 21 20 20 19 18 18 17 16 16 15 15 15 14 14 14 13 13 13 14 14 13 13 13 13 13 14 14 14 14 14 15 16 17 17 17 18 19 19 20 21 21 22 22 22 23 24 26 27 29 31 32 33 34 36 37 38 39 39 40 42 42 43 42 42 42 42 41 41 42 43 44 44 43
22 22 22 22 22 22 22 22 22 21 21 21 21 20 20 19 19 18 17 17 16 16 15 15 14 14 13 13 13 13 13 13 13 12 12 12 13 13 13 13 13 13 14 15 15 16 16 17 18 19 20 20 21 21 22 22 23 24 25 27 29 30 32 33 34 35 37 38 38 39 40 41 42 43 43 42 42 43 43 42 42 43 44 44 42
22 21 21 22 21 21 21 22 22 22 22 21 21 21 20 20 19 19 18 17 17 16 15 15 14 14 13 13 13 14 13 13 12 12 12 12 12 12 12 12 12 13 13 14 14 15 15 16 17 19 19 20 20 21 21 22 23 24 25 27 28 30 31 32 34 35 36 37 38 39 40 41 42 43 43 43 42 43 44 44 43 43 45 44 42
21 21 22 22 21 21 22 22 22 22 22 22 21 21 20 20 20 19 18 18 17 17 16 15 14 14 13 13 13 13 13 12 12 12 12 12 12 12 12 12 12 12 13 13 14 14 15 16 17 18 19 19 20 20 21 22 23 23 25 27 28 30 31 31 33 34 35 37 38 39 40 41 42 43 44 44 43 43 44 45 44 44 45 44 43
21 21 21 22 22 21 22 22 22 22 22 22 22 21 21 20 20 19 19 18 18 17 17 16 15 14 14 14 13 13 13 12 12 12 12 12 12 12 11 12 12 12 12 13 13 14 15 16 17 18 19 19 19 20 20 21 22 23 25 27 28 29 30 31 32 34 35 36 38 38 40 41 41 43 44 45 44 44 44 45 46 45 45 45 43
21 21 22 22 22 22 22 22 22 23 23 22 22 21 21 21 20 20 19 19 19 18 17 16 15 15 15 14 14 13 13 12 12 12 12 12 11 11 11 11 11 12 12 12 13 14 15 16 17 18 18 19 19 19 20 21 22 23 25 26 28 29 30 31 32 33 35 36 37 38 39 40 41 42 43 45 45 44 44 45 46 46 46 45 44
21 21 22 22 22 22 22 22 22 23 23 22 22 22 21 21 21 20 20 20 19 19 18 17 16 16 15 15 14 14 13 12 12 12 12 12 11 11 11 11 11 11 12 12 13 14 15 16 17 18 18 18 19 19 20 21 22 23 24 26 27 28 29 30 31 33 34 35 37 38 39 39 40 41 42 44 45 45 44 45 46 46 46 45 44
21 21 22 22 22 22 22 22 23 23 23 23 22 22 22 22 21 21 20 20 20 19 18 18 17 17 16 15 15 14 13 12 12 12 12 12 11 11 11 11 11 12 12 13 14 14 15 16 17 17 17 18 19 19 20 21 22 23 24 25 26 27 28 30 31 32 33 35 36 37 38 38 39 40 41 42 44 45 44 44 45 46 46 45 44
21 21 21 22 22 22 23 23 23 23 23 23 23 23 23 22 22 21 21 21 20 19 19 18 18 18 17 16 15 14 13 13 13 13 12 12 11 11 11 12 12 12 12 13 14 14 15 16 16 17 17 18 18 19 20 21 21 22 23 24 25 27 28 29 30 31 32 34 35 36 37 37 38 39 40 41 43 44 45 45 45 46 46 45 44
22 22 22 22 22 23 23 23 24 24 24 24 23 23 23 23 22 22 22 21 20 20 19 19 19 18 17 16 15 14 14 14 14 13 12 12 11 11 12 12 12 12 13 13 14 15 15 16 16 17 17 17 18 19 20 21 21 22 23 24 25 26 27 28 29 30 32 33 34 35 36 37 37 38 40 41 41 43 44 44 44 45 45 45 44
22 22 22 22 23 23 24 24 24 24 24 24 24 24 24 23 23 23 23 22 21 21 20 20 19 19 18 16 15 15 15 15 14 13 13 12 12 12 12 12 12 13 13 14 14 14 15 16 16 16 17 17 18 19 20 21 21 22 23 24 25 25 26 27 28 30 31 32 33 34 35 36 37 38 38 40 40 42 43 44 44 44 44 45 44
23 23 23 23 24 24 24 24 24 24 24 24 24 24 24 24 24 24 23 22 22 21 20 20 19 18 17 17 16 15 15 15 14 14 13 12 13 13 13 13 13 13 14 14 14 15 15 16 16 16 17 17 18 19 20 20 21 22 23 24 24 25 26 27 28 29 30 31 32 34 35 36 36 37 38 39 39 40 42 43 43 43 43 44 44
23 23 24 24 24 25 25 25 25 25 25 25 24 24 24 24 24 24 23 23 22 22 21 20 19 19 18 17 16 16 16 16 15 14 14 13 14 14 14 14 14 14 14 15 15 16 16 16 16 16 17 18 18 19 20 21 21 22 23 24 24 25 25 26 27 28 29 30 31 33 34 35 36 36 37 37 38 39 40 41 42 42 43 42 42
23 23 24 24 25 25 25 25 25 25 25 25 25 24 24 24 24 24 23 22 22 22 21 21 20 20 20 19 18 17 17 17 15 15 15 14 15 15 15 15 15 15 15 15 15 16 16 16 16 17 17 18 19 19 20 21 21 22 23 24 24 25 25 26 26 27 28 29 30 31 33 34 35 35 36 36 37 38 38 39 40 41 41 42 41
24 24 24 25 25 26 26 26 26 26 26 25 25 25 25 25 25 24 23 22 22 21 21 21 21 21 21 20 19 19 18 17 16 15 15 15 15 15 15 15 15 15 15 15 16 16 16 16 16 17 18 18 19 20 20 21 22 22 23 24 24 25 25 25 26 27 28 28 29 30 32 33 34 34 35 35 36 36 37 38 39 39 40 40 41
24 24 24 25 25 26 26 26 26 26 26 26 25 25 26 26 25 24 23 22 21 21 21 21 21 21 21 21 20 19 18 17 16 16 16 16 16 15 15 15 15 15 15 16 16 16 16 16 17 17 18 19 19 20 20 21 21 22 23 24 24 25 25 25 26 26 27 28 29 30 30 31 32 33 34 34 35 35 36 36 37 38 38 39 39
24 24 25 25 25 26 26 26 26 26 26 26 25 25 26 26 25 24 23 23 22 22 21 21 21 21 20 20 20 19 18 17 17 17 16 16 16 15 15 15 16 16 16 16 16 16 16 17 17 17 18 19 19 20 20 21 21 22 23 24 25 25 25 26 26 27 27 28 28 29 30 30 31 32 33 33 34 34 34 35 36 36 37 37 37
24 24 25 25 25 26 26 26 26 26 26 25 25 26 26 25 25 24 24 23 23 22 22 22 22 21 20 20 19 19 18 18 18 17 17 16 16 16 16 16 16 16 17 16 16 16 16 17 17 18 18 19 19 20 20 21 21 22 23 24 25 25 25 26 26 27 27 28 28 28 29 30 30 31 31 32 32 33 33 33 34 34 35 36 36
24 24 24 24 25 25 25 25 26 26 26 25 25 25 25 25 25 25 24 24 23 23 23 23 22 21 20 20 20 19 19 18 18 17 17 17 17 17 17 17 17 17 17 16 16 16 17 17 17 18 18 19 19 20 21 21 22 22 23 24 25 25 25 25 26 27 27 28 28 28 29 29 29 30 30 31 31 31 31 32 32 32 33 34 34
24 24 24 23 23 23 24 25 25 25 26 26 26 26 26 26 25 25 25 24 24 24 23 23 22 21 21 21 20 20 19 19 18 18 17 17 17 17 17 17 17 17 17 17 17 17 17 17 18 18 19 19 20 20 21 22 22 22 23 24 25 25 25 26 26 27 27 28 28 28 28 29 29 29 29 29 30 30 30 30 31 31 31 32 32
23 23 23 23 22 23 24 25 25 25 26 26 27 27 27 27 27 26 25 25 24 24 23 23 22 21 21 21 20 20 20 19 19 19 18 18 18 18 18 18 18 18 18 17 17 18 18 18 19 19 20 20 20 21 21 22 22 23 23 24 24 25 25 26 27 27 27 28 28 28 28 28 28 28 28 29 29 29 29 29 29 29 29 30 30
22 22 22 22 22 22 23 25 26 26 26 26 27 27 28 28 28 27 26 25 24 24 23 22 22 21 21 21 21 21 20 20 20 19 19 19 19 19 19 19 19 19 19 19 18 18 19 19 19 20 20 20 21 21 21 22 23 23 23 24 24 25 25 26 27 27 27 27 28 28 28 28 28 28 28 28 28 28 28 28 28 28 28 28 28
21 22 23 23 22 21 22 24 25 26 26 26 26 26 27 28 27 26 26 25 24 23 22 22 21 21 21 21 21 21 21 20 20 20 20 20 20 20 20 20 19 20 20 20 19 19 20 20 20 20 20 21 21 21 21 22 23 23 23 24 24 25 26 26 27 27 27 27 28 28 28 28 27 27 27 27 27 27 27 27 27 26 26 26 26
21 21 21 22 21 20 21 22 23 24 25 25 26 26 27 27 27 26 26 25 24 23 22 21 21 22 22 22 22 22 21 21 21 21 21 21 21 20 20 20 20 20 20 20 20 20 20 20 21 21 21 21 21 21 21 22 23 23 23 24 25 25 26 27 27 27 27 28 28 28 28 28 27 27 27 26 26 26 26 26 25 25 25 25 25
21 21 21 21 21 20 19 20 21 22 23 24 25 25 25 26 26 26 25 25 24 23 22 22 22 22 22 22 22 22 22 22 22 22 22 21 21 21 21 21 21 21 21 21 21 21 21 21 21 21 21 22 22 22 22 22 23 23 24 24 25 26 26 27 28 28 27 27 28 28 28 28 27 26 26 26 26 25 25 25 24 24 24 24 23
22 22 22 22 21 20 19 19 20 21 21 22 23 24 25 25 26 26 25 24 23 23 23 23 22 22 22 22 23 23 23 22 22 22 22 22 22 22 21 21 21 21 21 21 21 21 21 21 21 22 22 22 22 23 23 23 23 24 24 25 25 26 27 27 27 28 27 27 28 28 28 27 27 26 26 26 25 25 24 24 24 24 23 23 23
22 22 22 22 22 20 20 20 21 21 22 23 24 24 25 25 26 26 25 24 24 23 23 23 23 23 23 23 23 23 23 23 23 22 22 22 22 22 22 21 21 21 20 21 21 21 21 22 22 22 23 23 23 24 24 24 24 25 25 25 26 27 27 27 28 28 27 27 28 28 28 27 27 26 26 26 25 24 24 24 23 23 23 23 22
23 23 22 22 22 21 21 21 22 22 23 23 24 24 25 25 26 26 25 25 24 24 24 24 23 23 24 24 24 24 24 24 23 23 22 22 22 22 22 22 22 22 22 22 22 23 23 23 23 23 24 24 25 25 25 25 26 26 26 26 27 27 28 28 28 28 28 28 28 28 27 27 27 26 26 25 25 24 24 23 23 23 23 22 22
24 23 23 23 23 22 22 22 23 23 23 24 24 25 25 26 26 26 25 25 25 25 25 24 24 24 24 24 24 24 24 24 24 23 23 23 22 22 22 22 22 23 23 23 24 24 24 24 25 25 25 26 26 26 26 27 27 27 27 28 28 28 29 29 29 28 28 28 28 27 27 27 26 26 26 26 25 24 24 23 23 23 23 22 22
24 23 23 23 23 22 22 22 23 23 24 24 25 25 26 26 26 26 25 25 26 26 25 25 24 24 24 24 24 24 24 24 24 23 23 23 23 23 23 23 23 23 23 24 24 25 25 25 25 25 26 26 27 27 27 28 28 28 29 29 29 29 29 29 29 28 28 28 28 27 27 26 26 26 26 26 25 24 24 23 23 22 22 23 22
25 24 23 23 23 23 23 23 24 24 24 24 25 25 26 26 26 26 25 25 25 25 25 25 25 25 25 25 25 25 24 24 23 23 23 23 23 23 23 23 23 24 24 24 25 25 26 26 26 27 27 27 28 28 28 28 29 29 29 30 30 30 30 30 29 29 28 28 27 27 27 26 26 26 26 25 25 24 24 23 23 22 22 23 23
24 24 24 24 24 23 23 23 24 24 24 24 25 26 26 27 27 26 26 25 25 25 26 26 26 26 26 26 26 25 25 25 24 24 24 24 24 24 24 24 24 25 25 26 26 26 27 27 27 28 28 29 29 30 30 30 30 30 30 30 30 30 30 30 30 29 29 28 28 27 27 27 26 26 26 25 25 24 24 24 23 23 23 23 23
23 23 23 23 23 23 23 23 23 24 24 25 25 26 26 27 27 27 27 26 26 26 26 26 26 26 26 26 26 26 26 25 25 24 24 24 24 24 25 25 25 26 26 26 27 27 27 28 28 29 29 30 30 31 31 31 31 31 31 31 31 31 31 31 30 29 29 29 28 28 28 28 27 27 26 26 25 25 25 24 24 23 23 23 23
Wind_Direction
218 219 221 222 222 222 226 229 233 239 245 251 258 264 264 261 258 260 265 270 275 279 283 287 291 294 298 300 302 303 303 304 305 307 308 310 312 314 316 318 320 322 323 325 326 327 328 329 330 330 331 331 330 330 330 330 329 329 328 328 328 327 326 324 322 320 320 320 318 317 316 315 314 312 310 308 307 306 304 302 299 297 294 293 291
218 220 222 223 225 227 231 234 238 242 246 252 258 261 260 257 258 262 266 271 275 280 284 288 291 295 298 301 302 303 303 303 305 307 308 310 312 314 316 318 321 322 324 325 327 328 329 330 330 331 331 331 331 331 332 332 331 331 331 330 329 328 327 325 323 321 320 321 320 319 319 318 316 315 313 311 309 308 306 304 302 299 296 293 291
219 222 225 227 230 232 235 237 240 243 247 253 257 258 256 256 259 264 269 273 277 281 285 288 291 294 298 300 302 302 303 304 306 307 308 310 313 315 317 319 322 323 324 325 327 328 329 330 331 331 331 331 332 332 333 333 334 333 333 332 331 329 328 326 324 323 321 322 323 322 321 321 319 317 315 313 312 310 308 306 304 301 298 295 292
222 226 229 232 234 235 237 239 242 245 249 253 255 254 255 257 260 266 271 275 278 281 284 288 291 295 298 300 301 301 302 303 306 307 308 310 313 315 318 320 323 324 325 326 326 328 330 331 331 331 332 332 333 334 335 335 335 335 334 333 332 330 329 328 327 326 324 324 324 324 324 322 321 319 317 315 314 312 310 307 305 303 300 298 295
227 231 233 235 236 237 238 241 244 247 250 251 252 253 255 258 262 267 272 276 279 281 284 287 290 294 297 299 300 300 302 303 305 307 309 311 313 315 317 320 322 324 325 326 327 329 331 331 331 332 333 334 335 336 336 336 336 336 335 333 332 331 330 330 329 329 328 326 326 326 326 325 323 322 320 318 316 314 311 309 307 305 302 299 297
230 233 235 236 237 237 239 243 246 248 250 251 252 255 257 261 264 269 273 276 278 280 282 286 289 292 295 297 298 299 302 304 305 307 308 310 312 314 317 319 322 323 325 326 328 330 331 332 332 334 335 336 336 337 337 337 337 336 335 334 333 332 332 332 332 332 331 329 328 328 328 327 326 324 323 321 318 316 314 312 310 307 304 301 299
232 234 235 236 238 239 242 245 247 248 249 251 254 256 259 262 266 270 274 276 277 278 281 285 288 292 295 296 298 299 302 304 305 306 307 309 311 313 316 318 320 322 324 326 329 330 332 332 333 334 336 336 337 338 338 338 337 336 335 335 334 334 334 335 334 334 333 332 331 331 330 330 328 327 325 324 321 320 318 316 314 312 309 306 304
233 235 236 238 240 242 244 247 248 248 250 252 255 257 259 262 267 270 273 274 275 276 279 283 288 292 295 296 297 299 300 303 305 306 307 309 311 312 314 316 318 321 324 327 329 331 332 333 334 335 336 336 337 338 338 338 337 337 337 336 336 336 337 336 336 336 336 335 334 333 333 332 331 330 328 327 326 324 324 321 318 316 314 311 309
235 237 238 240 242 243 245 247 249 250 251 252 254 256 259 262 266 269 272 272 273 275 278 282 287 291 293 295 296 297 299 301 304 306 307 309 310 311 312 314 316 320 324 327 330 331 332 333 333 334 336 337 337 337 338 338 338 338 338 338 339 339 339 339 339 339 338 337 336 336 336 336 335 334 332 331 330 329 328 326 322 320 318 316 314
237 239 240 241 242 243 245 247 249 250 251 251 253 255 258 261 264 268 270 270 272 275 278 281 285 289 291 292 294 296 298 301 303 305 307 309 310 312 312 313 315 319 323 327 329 331 332 333 333 335 336 337 337 338 339 339 339 339 340 341 341 341 341 341 341 341 341 340 339 339 339 338 338 337 335 334 333 332 331 329 326 325 323 321 320
239 240 241 241 242 243 245 247 249 250 250 251 252 254 257 260 263 266 267 269 271 275 277 280 283 286 288 290 292 295 297 300 302 304 306 309 310 311 312 313 315 318 322 326 328 330 332 333 334 335 336 337 338 339 340 340 341 342 343 343 344 344 344 344 344 344 344 343 342 342 341 341 340 340 338 336 335 334 333 332 330 328 327 325 323
239 240 240 241 242 243 245 248 249 249 249 249 251 253 256 259 262 264 265 267 270 273 275 277 281 284 285 288 291 294 297 299 300 303 306 308 309 310 312 314 315 317 321 325 326 329 332 334 335 336 337 338 339 340 341 342 344 344 345 345 346 347 347 346 346 347 346 346 345 344 343 343 343 343 341 339 337 336 335 334 332 330 328 327 325
239 239 240 240 242 244 246 248 249 248 248 249 250 252 255 258 261 263 264 267 269 270 271 275 278 281 283 286 290 293 296 298 299 302 305 307 308 310 312 314 315 317 320 322 324 328 332 334 336 337 338 339 340 341 343 344 345 346 346 347 348 349 349 349 349 349 349 348 347 346 346 345 345 346 344 341 339 338 336 335 333 332 330 329 326
239 239 240 241 243 245 247 248 248 247 247 248 249 251 254 257 260 262 264 265 266 266 268 272 275 278 281 284 289 293 295 297 299 302 305 307 308 310 312 314 315 316 318 320 324 328 331 334 336 338 339 340 341 342 344 345 346 347 348 349 350 350 350 351 352 352 352 351 350 348 348 348 348 348 347 345 342 340 338 336 335 334 332 331 329
239 239 239 241 243 244 246 247 246 245 245 246 247 250 253 255 258 261 263 263 263 264 266 270 273 276 279 283 288 292 295 297 299 302 305 307 308 310 311 313 314 315 317 320 324 328 331 333 335 337 339 340 341 343 345 345 346 348 350 350 351 352 352 353 354 354 354 354 352 351 351 351 350 350 350 348 345 343 341 338 337 336 335 333 332
238 237 238 239 241 243 245 245 244 244 244 245 246 248 252 254 257 260 261 260 261 263 265 269 272 274 278 282 286 290 293 296 298 301 303 305 307 308 310 311 313 314 316 320 325 328 330 333 334 337 339 340 342 344 344 345 347 349 350 351 352 353 354 355 355 355 355 355 355 354 353 353 352 352 352 351 348 346 344 342 341 340 338 336 335
237 236 237 239 241 243 244 244 244 244 244 244 246 248 251 254 257 258 258 258 259 261 264 267 270 273 277 281 284 287 291 294 296 300 301 303 304 306 308 309 311 313 317 320 324 328 330 332 334 337 339 341 342 344 344 345 347 350 351 352 353 354 355 356 356 356 357 357 357 356 355 355 354 353 353 353 351 349 347 345 344 343 342 339 338
237 237 239 241 242 243 244 245 245 244 244 244 246 248 251 253 255 256 256 256 257 259 263 266 269 272 276 279 282 285 289 292 294 298 301 302 303 304 305 306 309 313 317 320 322 326 329 332 335 337 340 341 342 343 345 346 348 350 351 352 353 354 355 356 356 357 358 358 358 358 357 357 356 356 355 355 354 353 351 348 347 346 344 342 340
238 239 241 242 242 243 244 245 245 244 244 245 246 247 250 252 254 255 255 255 256 259 261 264 267 271 275 277 280 284 288 290 293 297 299 301 303 303 303 305 309 313 316 318 321 325 329 332 335 338 340 341 342 344 345 346 348 350 351 352 353 354 355 355 356 357 358 358 359 359 359 359 358 358 357 356 357 356 354 352 350 349 346 344 343
238 239 241 242 243 244 244 245 245 244 244 245 246 247 249 251 252 252 252 254 256 258 260 262 265 269 273 276 280 284 287 289 291 294 297 300 302 302 303 305 308 311 314 317 321 325 329 332 335 338 339 341 342 343 345 346 348 350 351 352 353 353 354 355 356 357 358 358 359 359 360 360 360 360 359 358 359 358 357 355 354 352 350 347 347
237 239 241 242 243 243 243 244 244 243 243 245 245 246 248 250 250 250 250 251 254 256 258 260 263 267 271 274 279 282 285 286 288 292 295 297 299 300 303 306 308 310 314 318 322 325 328 332 336 337 338 340 341 343 344 346 348 349 351 352 352 352 353 355 356 357 358 358 358 359 360 0 1 1 1 1 0 0 359 357 357 356 354 351 349
237 240 241 242 242 243 243 244 244 244 244 244 245 246 247 248 248 248 248 249 251 253 255 258 261 264 268 272 277 280 281 282 287 291 293 295 296 299 303 305 307 311 315 318 321 324 328 333 336 336 337 338 340 341 343 345 347 349 350 351 351 352 354 355 356 357 358 358 359 359 360 0 1 2 2 2 2 2 1 360 359 358 358 356 354
237 240 242 241 242 243 244 244 244 244 244 244 244 245 246 246 246 246 246 247 248 250 253 256 258 261 264 268 273 276 277 280 285 289 290 292 294 298 302 304 306 310 314 317 319 324 329 333 334 335 336 337 338 340 342 343 346 347 349 350 351 352 354 355 356 357 358 358 359 359 359 0 1 2 2 3 3 3 3 2 1 360 360 360 359
237 240 241 241 241 243 245 245 244 244 244 244 244 244 244 244 244 244 245 245 247 249 250 252 255 257 260 265 270 271 273 278 283 285 286 289 292 296 300 302 304 309 313 315 318 324 329 331 332 333 334 335 337 339 340 341 343 345 347 349 350 352 353 355 356 356 357 358 359 359 359 0 1 2 3 3 4 4 4 4 3 2 2 3 3
237 239 241 242 242 244 245 244 243 243 243 243 243 243 243 243 242 243 243 244 246 247 248 250 252 254 258 263 266 267 269 275 279 280 282 286 290 294 298 301 303 307 311 314 318 323 326 328 330 332 333 335 336 338 339 339 341 343 345 347 349 351 353 354 355 356 357 358 358 359 359 0 1 2 3 3 4 5 5 6 6 5 6 6 7
238 240 242 243 243 244 244 243 243 243 243 243 243 243 243 242 242 242 243 244 245 246 246 248 250 253 257 262 264 264 266 270 274 276 280 283 287 292 297 299 301 305 309 313 317 321 323 325 328 330 332 333 335 337 337 338 339 341 343 346 348 350 351 353 354 355 356 357 358 358 359 -0 1 2 3 3 4 5 6 7 7 7 8 8 9
241 242 243 244 244 244 243 242 242 242 242 243 243 244 243 242 242 242 242 243 244 244 245 246 248 252 256 260 261 262 264 266 269 273 277 281 285 290 295 297 300 303 308 312 316 318 320 323 327 328 329 331 333 335 337 337 338 340 342 344 346 348 350 352 353 354 355 356 357 358 359 360 0 2 3 4 5 6 7 8 8 8 9 10 10
243 244 244 245 245 244 242 241 241 242 242 243 243 244 243 243 243 242 242 242 242 242 243 245 248 251 255 257 258 259 260 262 265 269 273 278 283 289 292 294 297 302 307 311 313 315 318 322 324 325 327 330 332 335 337 337 338 339 341 343 345 347 349 350 352 354 354 355 356 357 358 359 0 1 3 4 5 6 7 8 9 9 10 11 12
245 246 246 246 245 244 243 242 242 242 243 243 244 244 244 243 243 242 243 242 242 242 243 246 249 252 254 254 255 256 257 260 263 265 269 274 280 285 287 290 295 301 305 308 311 314 318 321 322 324 326 328 331 334 336 337 338 339 340 342 343 345 347 349 351 353 354 354 355 356 358 359 360 1 2 3 4 6 7 8 9 10 11 12 13
245 246 247 247 246 244 243 243 243 243 243 243 243 244 244 243 242 242 243 242 241 242 244 247 250 253 253 253 254 254 257 261 262 262 264 270 276 279 282 286 292 298 302 305 310 313 316 319 320 322 324 326 329 332 334 336 337 338 339 340 341 343 345 347 349 351 352 354 354 355 357 358 359 0 1 2 4 5 7 8 9 10 11 12 13
245 247 248 247 246 245 244 243 243 244 244 243 243 243 243 243 242 243 243 242 241 241 243 246 249 250 250 252 254 255 257 260 261 260 262 268 272 275 279 285 291 294 298 302 307 310 313 315 317 319 322 324 327 330 332 334 336 336 337 339 340 341 343 344 346 348 351 352 354 355 356 357 358 359 0 1 3 4 6 8 10 11 12 13 14
246 248 249 248 247 245 245 244 244 244 244 243 243 242 241 240 241 242 242 241 241 241 242 245 247 247 248 251 253 254 255 258 259 260 262 265 269 273 279 285 290 292 296 300 303 306 308 311 313 316 320 322 324 327 330 332 334 335 336 337 338 340 340 342 344 346 348 350 352 354 355 356 357 358 359 0 2 3 5 6 9 10 11 13 14
248 250 250 249 247 246 245 245 244 244 243 242 241 241 240 239 239 239 239 240 240 240 241 244 244 245 247 249 249 250 252 254 257 259 261 263 266 272 279 284 287 291 295 298 300 302 304 307 310 314 317 320 323 325 327 329 331 333 334 335 336 337 338 340 341 343 345 347 349 351 353 354 355 357 358 359 1 2 3 5 7 9 10 12 13
250 250 250 248 247 246 245 245 244 243 242 241 241 240 240 238 238 237 237 236 237 239 242 243 243 245 247 247 246 246 249 253 256 258 259 261 266 272 278 283 286 290 293 296 298 299 301 304 307 311 315 319 321 323 325 327 329 331 332 333 334 335 336 337 339 341 342 344 346 348 350 352 353 355 356 358 359 1 2 4 5 7 9 11 12
250 250 249 248 247 246 245 245 244 242 241 241 240 240 239 238 237 236 236 235 237 239 241 241 242 244 245 244 244 245 248 253 255 256 258 261 266 271 276 281 285 288 291 294 296 298 299 302 305 309 313 317 320 322 323 325 327 329 331 332 332 333 334 335 337 338 339 341 342 345 347 349 351 352 354 355 357 359 1 2 4 5 7 9 11
249 250 249 248 248 246 245 244 243 241 240 241 240 239 238 237 237 236 236 236 237 238 239 240 241 241 242 242 243 246 249 252 254 255 257 261 266 270 275 279 283 286 289 292 295 297 299 301 304 307 311 315 318 320 321 323 325 328 329 330 330 331 332 334 335 336 337 338 339 341 344 346 348 350 351 353 354 356 358 0 2 3 5 8 10
247 247 248 249 249 246 245 244 242 240 239 239 239 238 236 236 236 236 236 236 237 237 238 238 238 238 240 243 245 246 249 251 252 254 258 262 265 269 274 278 281 285 288 291 293 296 298 300 303 305 309 313 315 318 320 322 324 326 327 328 329 330 331 333 334 335 336 337 337 339 340 342 344 346 348 350 352 354 356 358 360 1 3 5 7
245 244 244 248 249 247 245 244 242 241 240 239 238 237 237 236 235 236 236 237 237 237 237 237 237 238 241 244 245 245 247 249 252 255 259 262 266 269 272 276 279 283 287 290 291 293 297 300 302 304 307 310 312 315 318 320 322 323 324 326 327 328 330 331 333 334 335 335 336 337 338 339 341 343 345 347 349 351 353 355 357 359 0 2 5
244 243 244 246 248 248 246 245 243 243 242 240 238 238 237 236 235 235 236 237 236 235 235 236 236 239 243 244 243 244 246 249 252 256 259 262 265 268 271 274 277 281 285 288 290 292 295 298 300 303 305 307 310 312 315 318 319 320 322 323 325 327 328 330 332 333 334 334 335 335 336 337 338 340 342 343 345 348 350 352 354 356 358 360 2
244 245 245 246 247 248 248 247 245 243 242 240 239 238 237 235 234 234 235 235 234 233 234 235 236 240 243 244 243 244 247 251 254 256 259 262 265 267 269 272 276 279 282 285 288 290 293 296 299 302 304 306 308 310 313 315 316 318 319 320 322 324 326 329 331 332 333 334 334 335 335 336 337 338 339 340 342 344 346 348 351 353 356 357 359
246 246 245 245 247 250 251 250 247 244 241 239 238 236 234 233 233 233 233 232 231 232 234 235 238 241 244 244 244 246 250 253 255 257 260 262 265 267 269 271 275 278 280 283 286 288 291 294 297 301 303 305 307 309 311 313 314 316 317 318 319 321 324 327 329 330 331 332 333 334 335 335 336 336 337 338 339 341 343 345 347 350 352 355 356
246 246 245 243 245 249 252 252 249 244 239 235 232 230 230 230 231 231 230 229 230 232 235 237 240 243 245 246 246 248 251 254 256 258 261 263 264 266 269 271 274 277 279 282 285 287 289 292 296 299 302 304 306 308 309 311 312 314 315 316 317 319 322 324 326 327 328 330 331 333 334 335 335 336 336 337 338 339 340 342 344 346 349 351 353
244 245 244 242 242 246 250 251 248 243 238 233 230 229 229 230 230 229 229 229 231 234 237 240 243 245 247 248 249 250 252 255 257 259 261 263 264 267 269 271 274 276 278 281 283 285 287 290 294 297 300 302 304 305 306 308 310 312 313 314 315 317 320 322 323 325 326 327 329 331 332 333 334 335 335 336 337 337 338 339 341 343 345 347 349
244 244 243 241 242 245 246 246 244 241 238 235 233 232 231 231 231 230 230 230 233 236 239 242 245 248 249 250 251 251 253 256 258 259 261 263 265 267 269 271 274 276 278 280 282 283 285 288 291 294 298 299 301 302 304 305 307 310 311 313 314 316 318 321 322 324 325 326 327 328 329 330 332 333 334 334 335 335 336 337 338 339 341 342 344
244 243 242 241 242 243 242 241 241 240 238 236 236 234 233 231 230 230 231 232 235 238 241 245 248 249 251 252 252 252 254 256 258 259 261 263 264 266 268 270 273 275 277 279 280 281 283 286 289 293 296 298 299 300 302 303 304 306 308 310 312 314 316 319 321 322 323 324 325 326 327 328 329 330 331 332 332 332 333 334 335 336 337 338 339
243 242 241 241 241 242 242 243 243 241 238 236 235 234 232 231 231 232 233 235 237 240 243 246 249 250 251 252 253 253 255 256 258 259 261 263 264 266 268 270 272 274 276 278 280 281 283 285 288 291 294 296 297 299 300 301 303 304 305 307 309 311 313 316 318 319 320 321 322 324 325 326 326 327 327 329 330 330 331 331 332 333 334 334 334
241 241 241 241 241 242 243 245 243 239 236 234 233 232 232 232 233 234 236 238 239 242 245 247 249 250 251 252 254 254 255 257 258 259 261 262 264 266 268 270 272 274 276 278 280 281 283 284 286 289 291 293 295 297 298 299 301 303 303 304 306 308 310 313 315 317 317 318 319 321 322 323 324 325 325 327 327 328 328 329 329 330 331 332 332
240 241 242 242 241 242 245 245 242 237 235 234 233 232 233 234 235 237 240 241 242 243 245 248 249 250 251 253 255 255 256 257 258 259 261 263 265 266 268 270 272 274 276 278 280 281 283 284 286 288 290 292 294 295 297 298 300 301 302 302 303 305 308 310 312 314 315 315 316 317 319 320 321 322 323 324 325 325 326 326 326 327 328 330 330
240 240 240 240 241 244 247 245 240 236 235 235 234 234 235 236 238 239 242 243 243 244 246 248 249 250 252 253 255 256 257 257 258 259 261 264 265 267 268 270 271 274 276 278 280 281 282 284 285 287 289 290 292 293 295 297 298 300 300 301 301 303 305 307 309 310 311 312 313 313 315 317 319 319 320 321 322 322 323 323 324 324 326 327 328
239 239 239 240 243 246 247 243 239 237 238 238 237 236 237 238 239 240 242 244 245 245 247 248 250 251 253 254 255 256 256 257 258 260 262 264 266 267 269 270 272 274 276 278 280 281 282 284 285 286 288 289 290 292 293 295 296 297 299 299 300 301 302 304 306 306 307 308 309 310 311 313 315 316 317 317 317 318 319 320 321 321 322 324 325
240 240 241 244 246 246 245 243 241 240 240 239 237 236 237 238 239 242 244 246 247 248 249 251 252 253 253 254 254 255 256 257 258 260 262 264 265 267 269 271 273 275 276 278 280 281 282 283 285 286 288 289 290 291 292 293 294 295 296 297 298 299 299 301 302 303 303 304 305 306 307 309 311 312 314 314 314 313 313 314 316 317 318 319 320